EW0538 Weather Reports


time (UTC)temp
F
wind
direction
speed
knots
gust
knots
rain 1hr
in
rain 24hr
in
rain mn
in
humidity
%
barometer
mb
20220124113845 8 232 0.0 0.0 0.00 0.00 0.00 91 1030.1
20220124112831 8 226 0.0 0.0 0.00 0.00 0.00 91 1030.2
20220124111801 9 100 0.0 0.0 0.00 0.00 0.00 91 1029.9
20220124110807 9 260 0.0 0.0 0.00 0.00 0.00 91 1030.1
20220124105748 9 75 0.0 0.0 0.00 0.00 0.00 90 1029.9
20220124104727 9 146 0.0 0.0 0.00 0.00 0.00 90 1029.9
20220124103657 9 226 0.0 0.0 0.00 0.00 0.00 91 1030.2
20220124102633 10 100 0.0 0.0 0.00 0.00 0.00 91 1030.1
20220124101646 10 235 0.0 0.0 0.00 0.00 0.00 91 1030.4
20220124100645 10 248 0.0 0.0 0.00 0.00 0.00 72 1030.4
20220124095705 9 119 0.0 0.0 0.00 0.00 0.00 72 1030.4
20220124094639 10 119 0.0 0.0 0.00 0.00 0.00 73 1030.5
20220124093622 9 122 0.0 0.0 0.00 0.00 0.00 72 1030.6
20220124092639 9 122 0.0 0.0 0.00 0.00 0.00 72 1030.4
20220124091645 10 122 0.0 0.0 0.00 0.00 0.00 72 1030.5
20220124090639 10 122 0.0 0.0 0.00 0.00 0.00 72 1030.4
20220124085702 10 122 0.0 0.0 0.00 0.00 0.00 71 1030.5
20220124084627 10 122 0.0 0.0 0.00 0.00 0.00 71 1030.5
20220124083609 10 122 0.0 0.0 0.00 0.00 0.00 71 1030.5
20220124082554 11 122 0.0 0.0 0.00 0.00 0.00 72 1030.5
20220124081547 11 122 0.0 0.0 0.00 0.00 0.00 72 1030.6
20220124080528 11 122 0.0 0.0 0.00 0.00 0.00 71 1030.6
20220124075456 11 122 0.0 0.0 0.00 0.00 0.00 71 1030.7
20220124074445 12 122 0.0 0.0 0.00 0.00 0.00 72 1030.8
20220124073446 12 122 0.0 0.0 0.00 0.00 0.00 71 1030.9
20220124072454 12 122 0.0 0.0 0.00 0.00 0.00 70 1031.0
20220124071420 12 122 0.0 0.0 0.00 0.00 0.00 70 1030.9
20220124070428 13 122 0.0 0.0 0.00 0.00 0.00 71 1030.9
20220124065353 13 122 0.0 0.0 0.00 0.00 0.00 71 1030.9
20220124064416 13 122 0.0 0.0 0.00 0.00 0.00 70 1030.9
20220124063409 13 122 0.0 0.0 0.00 0.00 0.00 70 1031.1
20220124062344 13 122 0.0 0.0 0.00 0.00 0.00 69 1031.2
20220124061310 14 122 0.0 0.0 0.00 0.00 0.00 69 1031.1
20220124060305 14 122 0.0 0.0 0.00 0.00 0.00 69 1031.0
20220124055305 14 122 0.0 0.0 0.00 0.00 0.00 69 1031.0
20220124054257 14 122 0.0 0.0 0.00 0.00 0.00 68 1031.0
20220124053319 15 122 0.0 0.0 0.00 0.00 0.00 69 1031.1
20220124052245 15 122 0.0 0.0 0.00 0.00 0.00 69 1030.9
20220124051232 15 122 0.0 0.0 0.00 0.00 0.00 68 1030.9
20220124050221 16 122 0.0 0.0 0.00 0.00 0.00 68 1030.8
20220124045217 16 122 0.0 0.0 0.00 0.00 0.00 67 1030.7
20220124044155 16 122 0.0 0.0 0.00 0.00 0.00 67 1030.7
20220124043122 17 122 0.0 0.0 0.00 0.00 0.00 66 1030.8
20220124042058 17 122 0.0 0.0 0.00 0.00 0.00 66 1030.7
20220124041040 18 122 0.0 0.0 0.00 0.00 0.00 66 1030.9
20220124040028 18 122 0.0 0.0 0.00 0.00 0.00 66 1030.8
20220124034958 18 122 0.0 0.0 0.00 0.00 0.00 65 1030.9
20220124033925 19 122 0.0 0.0 0.00 0.00 0.00 64 1031.0
20220124032932 20 122 0.0 0.0 0.00 0.00 0.00 64 1031.1
20220124031929 20 122 0.0 0.0 0.00 0.00 0.00 63 1031.1
20220124030946 21 122 0.0 0.0 0.00 0.00 0.00 63 1031.0
20220124030005 21 122 0.0 0.0 0.00 0.00 0.00 63 1030.9
20220124025026 22 122 0.0 0.0 0.00 0.00 0.00 63 1031.0
20220124024002 22 122 0.0 0.0 0.00 0.00 0.00 62 1030.9
20220124022934 23 122 0.0 0.0 0.00 0.00 0.00 61 1030.8
20220124021911 24 75 0.0 0.9 0.00 0.00 0.00 62 1030.7
20220124020847 23 293 0.0 0.0 0.00 0.00 0.00 61 1030.7
20220124015845 23 293 0.0 0.0 0.00 0.00 0.00 60 1030.5
20220124014829 24 293 0.0 0.0 0.00 0.00 0.00 60 1030.4
20220124013823 24 293 0.0 0.0 0.00 0.00 0.00 58 1030.1
20220124012823 25 293 0.0 0.0 0.00 0.00 0.00 58 1030.1
20220124011755 25 293 0.0 0.0 0.00 0.00 0.00 57 1029.9
20220124010752 26 293 0.0 0.0 0.00 0.00 0.00 57 1029.7
20220124005742 26 293 0.0 0.0 0.00 0.00 0.00 54 1029.5
20220124004740 27 293 0.0 0.0 0.00 0.00 0.00 54 1029.4
20220124003753 28 293 0.0 0.0 0.00 0.00 0.00 51 1029.4
20220124002725 29 292 0.9 4.3 0.00 0.00 0.00 50 1029.3
20220124001746 30 68 0.9 4.3 0.00 0.00 0.00 50 1029.2
20220124000809 31 115 0.0 0.9 0.00 0.00 0.00 48 1029.1
20220123235816 32 86 0.0 1.7 0.00 0.00 0.00 46 1029.1
20220123234836 33 108 0.0 0.0 0.00 0.00 0.00 46 1029.0
20220123233809 32 104 0.0 0.0 0.00 0.00 0.00 48 1028.8
20220123232808 32 103 0.0 0.0 0.00 0.00 0.00 46 1028.8
20220123231805 33 103 0.0 0.0 0.00 0.00 0.00 44 1028.6
20220123230754 34 103 0.0 0.0 0.00 0.00 0.00 43 1028.7
20220123225729 35 103 0.0 0.0 0.00 0.00 0.00 41 1028.7
20220123224746 36 103 0.0 0.0 0.00 0.00 0.00 39 1028.8
20220123223747 37 103 0.0 0.0 0.00 0.00 0.00 38 1028.9
20220123222748 38 103 0.0 0.0 0.00 0.00 0.00 35 1029.0
20220123221810 39 103 0.0 0.0 0.00 0.00 0.00 36 1029.2
20220123220737 38 117 0.0 0.9 0.00 0.00 0.00 36 1029.3
20220123215748 37 121 0.0 0.0 0.00 0.00 0.00 37 1029.5
20220123214728 37 121 0.0 0.0 0.00 0.00 0.00 37 1029.5
20220123213732 37 117 0.0 0.9 0.00 0.00 0.00 39 1029.6
20220123212715 36 155 0.0 0.0 0.00 0.00 0.00 38 1029.7
20220123211701 36 148 0.0 0.9 0.00 0.00 0.00 39 1029.9
20220123210637 36 131 0.0 0.0 0.00 0.00 0.00 41 1030.1
20220123205637 36 156 0.0 0.0 0.00 0.00 0.00 40 1030.2
20220123204700 35 168 0.0 0.0 0.00 0.00 0.00 43 1030.5
20220123203722 35 170 0.0 0.9 0.00 0.01 0.00 41 1030.7
20220123202709 34 174 0.0 0.0 0.00 0.01 0.00 43 1030.9
20220123201707 34 96 0.0 0.9 0.00 0.01 0.00 43 1031.2
20220123200701 34 151 0.0 0.0 0.00 0.01 0.00 45 1031.6
20220123195704 32 155 0.0 0.0 0.00 0.01 0.00 44 1031.9
20220123194658 32 155 0.0 0.0 0.00 0.01 0.00 43 1032.3
20220123193659 32 135 0.0 0.0 0.00 0.01 0.00 45 1032.5
20220123192625 32 138 0.0 0.0 0.00 0.01 0.00 48 1032.8
20220123191650 31 165 0.0 0.0 0.00 0.01 0.00 52 1033.3
20220123190653 31 154 0.0 0.0 0.00 0.01 0.00 51 1033.5
20220123185627 31 260 0.0 0.9 0.00 0.02 0.00 50 1033.7
20220123184633 30 247 0.0 0.0 0.00 0.02 0.00 54 1034.1
20220123183603 30 245 0.0 0.0 0.00 0.02 0.00 54 1034.5
20220123182618 29 246 0.0 0.0 0.00 0.02 0.00 56 1034.8
20220123181630 28 246 0.0 0.0 0.00 0.02 0.00 56 1035.0
20220123180601 26 169 0.0 0.0 0.00 0.02 0.00 58 1035.4
20220123175618 25 188 0.0 0.9 0.00 0.02 0.00 59 1035.5
20220123174636 24 171 0.0 0.9 0.00 0.02 0.00 60 1035.7
20220123173640 23 150 0.0 0.0 0.00 0.02 0.00 61 1036.0
20220123172644 22 167 0.0 0.0 0.00 0.02 0.00 63 1036.1
20220123171633 20 154 0.0 0.0 0.00 0.02 0.00 65 1036.2
20220123170634 20 154 0.0 0.0 0.00 0.02 0.00 67 1036.2
20220123165659 18 174 0.0 0.0 0.00 0.02 0.00 69 1036.4
20220123164711 17 174 0.0 0.0 0.00 0.02 0.00 69 1036.5
20220123163710 16 174 0.0 0.0 0.00 0.02 0.00 70 1036.7
20220123162726 16 124 0.0 0.0 0.00 0.02 0.00 72 1036.8
20220123161722 15 124 0.0 0.0 0.00 0.02 0.00 73 1036.9
20220123160741 14 124 0.0 0.0 0.00 0.02 0.00 74 1037.0
20220123155757 13 124 0.0 0.0 0.00 0.02 0.00 74 1037.2
20220123154745 12 124 0.0 0.0 0.00 0.02 0.00 75 1036.9
20220123153759 10 124 0.0 0.0 0.00 0.02 0.00 75 1036.9
20220123152728 9 124 0.0 0.0 0.00 0.02 0.00 75 1036.8
20220123151714 9 124 0.0 0.0 0.00 0.02 0.00 76 1036.9
20220123150704 8 124 0.0 0.0 0.00 0.02 0.00 75 1036.9
20220123145706 7 125 0.0 0.0 0.00 0.02 0.00 74 1036.9
20220123144655 7 125 0.0 0.0 0.00 0.02 0.00 75 1036.9
20220123143625 7 125 0.0 0.0 0.00 0.02 0.00 75 1036.9
20220123142645 7 125 0.0 0.0 0.00 0.02 0.00 75 1036.8
20220123141700 7 125 0.0 0.0 0.00 0.02 0.00 75 1036.9
20220123140710 7 125 0.0 0.0 0.00 0.02 0.00 74 1036.8
20220123135701 7 125 0.0 0.0 0.00 0.02 0.00 73 1036.6
20220123134644 7 125 0.0 0.0 0.00 0.02 0.00 74 1036.7
20220123133623 8 125 0.0 0.0 0.00 0.02 0.00 74 1036.6
20220123132553 8 125 0.0 0.0 0.00 0.02 0.00 74 1036.6
20220123131610 8 125 0.0 0.0 0.00 0.02 0.00 75 1036.5
20220123130559 9 125 0.0 0.0 0.00 0.02 0.00 74 1036.5
20220123125613 9 125 0.0 0.0 0.00 0.02 0.00 76 1036.4
20220123124601 9 125 0.0 0.0 0.00 0.02 0.00 75 1036.4
20220123123533 9 125 0.0 0.0 0.00 0.02 0.00 75 1036.3
20220123122553 9 125 0.0 0.0 0.00 0.02 0.00 76 1036.2
20220123121606 9 125 0.0 0.0 0.00 0.02 0.00 75 1036.4
20220123120629 9 125 0.0 0.0 0.00 0.02 0.00 75 1036.4
20220123115603 9 125 0.0 0.0 0.00 0.02 0.00 75 1036.4
20220123114623 9 125 0.0 0.0 0.00 0.02 0.00 75 1036.5